EW2956 Weather Reports


time (UTC)temp
C
wind
direction
speed
KPH
gust
KPH
rain 1hr
cm
rain 24hr
cm
rain mn
cm
humidity
%
barometer
mb
20260505125003 19 209 3.2 12.9 0.00 0.00 0.00 60 1010.8
20260505124003 18 178 6.4 16.1 0.00 0.00 0.00 62 1010.9
20260505123003 18 190 3.2 12.9 0.00 0.00 0.00 64 1010.7
20260505122004 17 192 3.2 12.9 0.00 0.00 0.00 64 1010.8
20260505121004 17 184 3.2 9.7 0.00 0.00 0.00 67 1010.7
20260505120004 17 192 3.2 9.7 0.00 0.00 0.00 67 1010.5
20260505114004 16 199 1.6 6.4 0.00 0.00 0.00 69 1010.3
20260505113004 16 172 1.6 8.0 0.00 0.00 0.00 69 1010.3
20260505111004 15 176 1.6 6.4 0.00 0.00 0.00 73 1009.9
20260505102003 12 0 0.0 0.0 0.00 0.00 0.00 80 1009.7
20260505100004 12 103 0.0 1.6 0.00 0.00 0.00 78 1009.4
20260505095004 13 103 0.0 1.6 0.00 0.00 0.00 77 1009.4
20260505094004 13 108 0.0 1.6 0.00 0.00 0.00 76 1009.3
20260505093003 13 116 0.0 6.4 0.00 0.00 0.00 76 1009.4
20260505091003 13 138 0.0 1.6 0.00 0.00 0.00 75 1009.3
20260505090003 13 173 0.0 6.4 0.00 0.00 0.00 75 1009.3
20260505084004 13 136 0.0 3.2 0.00 0.00 0.00 75 1009.2
20260505083004 13 97 0.0 3.2 0.00 0.00 0.00 76 1009.0
20260505082003 13 109 0.0 1.6 0.00 0.00 0.00 76 1009.0
20260505081004 13 84 0.0 1.6 0.00 0.00 0.00 76 1009.0
20260505080003 13 95 0.0 1.6 0.00 0.00 0.00 77 1009.2
20260505075003 12 127 0.0 1.6 0.00 0.00 0.00 81 1009.0
20260505074003 12 0 0.0 0.0 0.00 0.00 0.00 80 1009.0
20260505073002 12 0 0.0 0.0 0.00 0.00 0.00 79 1008.8
20260505072002 12 0 0.0 0.0 0.00 0.00 0.00 79 1008.9
20260505071003 12 0 0.0 0.0 0.00 0.00 0.00 78 1008.9
20260505070003 12 127 0.0 1.6 0.00 0.00 0.00 77 1009.0
20260505065003 12 0 0.0 0.0 0.00 0.00 0.00 76 1009.1
20260505064003 12 0 0.0 0.0 0.00 0.00 0.00 76 1009.1
20260505063002 12 127 0.0 1.6 0.00 0.00 0.00 77 1009.2
20260505062002 12 0 0.0 0.0 0.00 0.00 0.00 77 1009.3
20260505061002 12 0 0.0 0.0 0.00 0.00 0.00 77 1009.2
20260505060003 12 0 0.0 0.0 0.00 0.00 0.00 76 1009.1
20260505055002 12 0 0.0 0.0 0.00 0.00 0.00 76 1009.3
20260505054002 12 0 0.0 0.0 0.00 0.00 0.00 75 1009.3
20260505053003 12 0 0.0 0.0 0.00 0.00 0.00 76 1009.0
20260505051002 12 0 0.0 0.0 0.00 0.00 0.00 74 1009.2
20260505041003 15 325 0.0 3.2 0.00 0.00 0.00 65 1009.2
20260505040004 15 203 0.0 3.2 0.00 0.00 0.00 63 1009.1
20260505035002 16 218 0.0 3.2 0.00 0.00 0.00 61 1009.0
20260505033002 16 189 3.2 12.9 0.00 0.00 0.00 59 1008.8
20260505024002 16 172 1.6 8.0 0.00 0.00 0.00 57 1008.8
20260505023003 16 185 1.6 9.7 0.00 0.00 0.00 56 1008.9
20260505022002 17 183 1.6 8.0 0.00 0.00 0.00 56 1008.9
20260505021003 17 155 3.2 9.7 0.00 0.00 0.00 55 1008.8
20260505020002 17 143 3.2 19.3 0.00 0.00 0.00 54 1009.0
20260505014002 17 195 3.2 12.9 0.00 0.00 0.00 53 1009.0
20260505013003 17 170 1.6 6.4 0.00 0.00 0.00 52 1009.1
20260505012002 17 157 3.2 12.9 0.00 0.00 0.00 51 1008.9
20260505011003 18 173 3.2 16.1 0.00 0.00 0.00 49 1008.8
20260505010003 18 171 6.4 17.7 0.00 0.00 0.00 49 1008.6
20260505005003 18 160 3.2 22.5 0.00 0.00 0.00 48 1008.6
20260505004003 18 157 3.2 17.7 0.00 0.00 0.00 48 1008.5
20260505003003 18 155 3.2 17.7 0.00 0.00 0.00 48 1008.5
20260505002002 18 143 3.2 14.5 0.00 0.00 0.00 48 1008.4
20260505001002 18 176 3.2 14.5 0.00 0.00 0.00 47 1008.3
20260505000002 19 173 6.4 22.5 0.00 0.00 0.00 47 1008.3
20260504235002 20 181 6.4 17.7 0.00 0.00 0.00 46 1008.3
20260504234003 20 167 6.4 17.7 0.00 0.00 0.00 45 1008.2
20260504233003 20 164 6.4 16.1 0.00 0.00 0.00 45 1008.1
20260504230002 21 168 9.7 25.7 0.00 0.00 0.00 43 1008.1
20260504225003 21 168 8.0 33.8 0.00 0.00 0.00 42 1008.0
20260504224004 21 176 9.7 29.0 0.00 0.00 0.00 41 1008.1
20260504221003 22 187 9.7 24.1 0.00 0.00 0.00 38 1008.0
20260504215002 23 185 6.4 22.5 0.00 0.00 0.00 36 1008.0
20260504214002 23 190 8.0 17.7 0.00 0.00 0.00 36 1008.0
20260504213002 23 192 6.4 22.5 0.00 0.00 0.00 36 1007.9
20260504212003 23 207 6.4 16.1 0.00 0.00 0.00 38 1008.1
20260504211002 23 207 6.4 17.7 0.00 0.00 0.00 37 1008.0
20260504210002 23 204 6.4 19.3 0.00 0.00 0.00 40 1008.1
20260504205002 23 198 8.0 19.3 0.00 0.00 0.00 36 1008.2
20260504203002 23 188 8.0 16.1 0.00 0.00 0.00 38 1008.3
20260504202003 23 216 6.4 22.5 0.00 0.00 0.00 37 1008.5
20260504201003 23 209 8.0 25.7 0.00 0.00 0.00 38 1008.7
20260504195003 22 199 8.0 24.1 0.00 0.00 0.00 38 1008.9
20260504194002 22 200 9.7 25.7 0.00 0.00 0.00 40 1009.0
20260504193002 22 202 8.0 24.1 0.00 0.00 0.00 37 1009.3
20260504192002 22 204 9.7 24.1 0.00 0.00 0.00 39 1009.3
20260504191003 22 204 8.0 19.3 0.00 0.00 0.00 36 1009.3
20260504190003 22 203 6.4 19.3 0.00 0.00 0.00 38 1009.5
20260504185003 22 217 8.0 16.1 0.00 0.00 0.00 36 1009.7
20260504184002 22 188 8.0 22.5 0.00 0.00 0.00 38 1009.7
20260504183002 22 223 8.0 17.7 0.00 0.00 0.00 39 1009.9
20260504182002 22 215 6.4 16.1 0.00 0.00 0.00 39 1010.0
20260504181003 22 206 6.4 17.7 0.00 0.00 0.00 43 1010.1
20260504180002 21 215 8.0 22.5 0.00 0.00 0.00 39 1010.2
20260504175003 21 223 8.0 24.1 0.00 0.00 0.00 40 1010.2
20260504174003 21 183 8.0 17.7 0.00 0.00 0.00 38 1010.4
20260504151003 18 201 6.4 22.5 0.00 0.00 0.00 44 1012.5